Location: �perlecques
(50.8057°N, 2.1521°E)
Time: 08:21:03
(UTC+00:00)

STARS - Pass Details

Date: 10 April 2023
Orbit: 616 x 630 km, 98.1° (Epoch: 03 June)

Event Time Altitude Azimuth Distance (km) Brightness Sun altitude
Rises 23:26:09 0° 13° (NNE) 2,925 ? -30.8°
Reaches altitude 10° 23:28:21 10° 12° (NNE) 2,015 ? -30.8°
Enters shadow 23:30:54 35° 9° (N) 1,027 ? -30.9°
